THOR ABLESTAR DEB, 2432

Orbit data source: Space-Track

THOR ABLESTAR DEB, 2432 is space debris in LEO originally from a launch on Thu, 05 Dec 1963 UTC launched from the Air Force Western Test Range (AFWTR). Debris objects in space refer to the collection of defunct objects orbiting the Earth. Examples of debris include non-operational satellites, rocket bodies, and fragments generated from explosions, collisions, or faulty payload assembly.

Loading next visibility...
Identifier
2432, 1963-049G
Orbit
LEO
Country
Flag of USUS
Related business
Manufacturer
Unknown
Mission
Spacecraft
Bus & Motor
Unknown
Mass
Unknown
Launch date (UTC)
1963-12-05 (62 years ago)
Launch vehicle
Unknown
Launch site
Air Force Western Test Range (AFWTR)
Object type
Payload
Rocket body
Debris
Shape & HBR
Unknown shape, 0.2 m
Radar Cross Section
Medium (>0.1 m² and <1 m²)

Expand to show TLE details & history
Last TLE update: 6 hours ago

TLE from 6 hours ago
0 THOR ABLESTAR DEB
1  2432U 63049G   25297.79869818  .00000126  00000-0  18770-3 0  9999
2  2432  89.9187  72.5492 0034004 189.7613 289.2536 13.48212354 40989
Epoch: 2025-10-24T19:10Z
TLE epoch observation values (Epoch: 2025-10-24T19:10:07.522Z)
Latitude
61.44136°
Longitude
-68.56917°
Altitude
1,081.147 km
Speed
7.321 km/s
True Right ascension
16h 49m 36s
True Declination
61° 18' 11"
Sunlit
Object was in daylight at epoch
Visualization orbit readout
Latitude
Unknown
Longitude
Unknown
Altitude
Unknown
Speed
Unknown
Apparent Right ascension
Unknown
Apparent Declination
Unknown
Sunlit
N/A
Visualization observer readout
Local Sidereal Time
20:18:17
Azimuth
Unknown
Elevation
Unknown
Doppler factor
Unknown
Orbital elements
Apogee altitude
1,101.242 km
Perigee altitude
1,050.549 km
Semi-major axis
7,454.032 km
Eccentricity
0.0034
Inclination
89.9187°
RAAN
72.5492°
Arg. of periapsis
189.7613°
True anomaly
288.88522°
Mean anomaly
289.2536°
Eccentric anomaly
289.06946°
Mean motion
3.37253 °/min
Orbital period
106.74 mins
BSTAR
0.0001877
Loading maneuver chart data...
Computing Atmospheric mass density...
Loading historical data...
Loading historical data...
Loading historical data...
Loading historical data...
Loading historical data...
Loading historical data...
Loading historical data...

Documentation

Showing up to 5 results
|